• In Uzbekistan
  • List of Countries
  • For 7 days
  • Water Temperature
  • Satellite Maps
  • Weather Map
  • Weather Widgets
  • user-avatar
    Login

    Hourly Weather Townsville

    Today, 26 April, Wednesday

    Time Temperature Precipitation Wind Pressure Humidity
    00:00 +21°C° 0 mm 2 mps 754 mmHg 96%
    01:00 +21°C° 0 mm 2 mps 754 mmHg 96%
    02:00 +22°C° 0 mm 1 mps 754 mmHg 97%
    03:00 +21°C° 0 mm 1 mps 754 mmHg 97%
    04:00 +20°C° 0 mm 1 mps 753 mmHg 97%
    05:00 +21°C° 0 mm 1 mps 754 mmHg 97%
    06:00 +21°C° 0 mm 1 mps 754 mmHg 97%
    07:00 +22°C° 0 mm 1 mps 754 mmHg 97%
    08:00 +24°C° 0 mm 1 mps 754 mmHg 85%
    09:00 +27°C° 0 mm 1 mps 754 mmHg 74%
    10:00 +30°C° 0 mm 1 mps 754 mmHg 62%
    11:00 +31°C° 0 mm 1 mps 753 mmHg 58%
    12:00 +31°C° 0 mm 1 mps 753 mmHg 54%
    13:00 +32°C° 0 mm 2 mps 752 mmHg 49%
    14:00 +32°C° 0 mm 2 mps 752 mmHg 53%
    15:00 +31°C° 0 mm 2 mps 752 mmHg 57%
    16:00 +30°C° 0 mm 3 mps 751 mmHg 60%
    17:00 +28°C° 0 mm 3 mps 752 mmHg 71%
    18:00 +26°C° 0 mm 2 mps 752 mmHg 82%
    19:00 +24°C° 0 mm 2 mps 752 mmHg 93%
    20:00 +24°C° 0 mm 2 mps 752 mmHg 92%
    21:00 +24°C° 0 mm 2 mps 753 mmHg 92%
    22:00 +23°C° 0 mm 2 mps 753 mmHg 91%
    23:00 +23°C° 0 mm 2 mps 753 mmHg 93%

    Tomorrow, 27 April, Thursday

    Time Temperature Precipitation Wind Pressure Humidity
    00:00 +23°C° 0 mm 2 mps 753 mmHg 94%
    01:00 +21°C° 0 mm 2 mps 752 mmHg 95%
    02:00 +21°C° 0 mm 2 mps 752 mmHg 95%
    03:00 +21°C° 0 mm 2 mps 752 mmHg 95%
    04:00 +21°C° 0 mm 2 mps 752 mmHg 95%
    05:00 +21°C° 0 mm 2 mps 752 mmHg 92%
    06:00 +21°C° 0 mm 2 mps 753 mmHg 89%
    07:00 +21°C° 0 mm 2 mps 753 mmHg 86%
    08:00 +24°C° 0 mm 3 mps 753 mmHg 74%
    09:00 +26°C° 0 mm 3 mps 754 mmHg 62%
    10:00 +28°C° 0 mm 4 mps 754 mmHg 51%
    11:00 +30°C° 0 mm 3 mps 753 mmHg 47%
    12:00 +31°C° 0 mm 3 mps 753 mmHg 43%
    13:00 +32°C° 0 mm 2 mps 752 mmHg 39%
    14:00 +32°C° 0 mm 2 mps 752 mmHg 40%
    15:00 +33°C° 0 mm 3 mps 751 mmHg 40%
    16:00 +33°C° 0 mm 3 mps 751 mmHg 40%
    17:00 +29°C° 0 mm 3 mps 752 mmHg 49%
    18:00 +27°C° 0 mm 2 mps 752 mmHg 58%
    19:00 +24°C° 0 mm 2 mps 752 mmHg 67%
    20:00 +24°C° 0.1 mm 2 mps 753 mmHg 67%
    21:00 +23°C° 0.1 mm 2 mps 754 mmHg 66%
    22:00 +23°C° 0.1 mm 2 mps 754 mmHg 66%
    23:00 +21°C° 0.1 mm 3 mps 754 mmHg 60%

    Day after tomorrow, 28 April, Friday

    Time Temperature Precipitation Wind Pressure Humidity
    00:00 +20°C° 0.1 mm 4 mps 754 mmHg 54%
    01:00 +19°C° 0.1 mm 5 mps 754 mmHg 47%
    02:00 +17°C° 0 mm 5 mps 754 mmHg 44%
    03:00 +17°C° 0 mm 6 mps 754 mmHg 41%
    04:00 +17°C° 0 mm 6 mps 754 mmHg 39%
    05:00 +16°C° 0 mm 6 mps 754 mmHg 41%
    06:00 +16°C° 0 mm 6 mps 755 mmHg 43%
    07:00 +15°C° 0 mm 6 mps 756 mmHg 44%
    08:00 +17°C° 0 mm 6 mps 756 mmHg 43%
    09:00 +20°C° 0 mm 5 mps 756 mmHg 42%
    10:00 +22°C° 0 mm 5 mps 757 mmHg 40%
    11:00 +23°C° 0 mm 5 mps 756 mmHg 37%
    12:00 +26°C° 0 mm 4 mps 755 mmHg 34%
    13:00 +28°C° 0 mm 4 mps 755 mmHg 31%
    14:00 +28°C° 0 mm 3 mps 754 mmHg 31%
    15:00 +28°C° 0 mm 3 mps 754 mmHg 31%
    16:00 +28°C° 0 mm 3 mps 754 mmHg 31%
    17:00 +25°C° 0 mm 3 mps 754 mmHg 34%
    18:00 +22°C° 0 mm 3 mps 754 mmHg 38%
    19:00 +19°C° 0 mm 2 mps 755 mmHg 41%
    20:00 +19°C° 0 mm 3 mps 755 mmHg 41%
    21:00 +18°C° 0 mm 3 mps 756 mmHg 41%
    22:00 +17°C° 0 mm 3 mps 756 mmHg 41%
    23:00 +17°C° 0 mm 3 mps 756 mmHg 41%

    29 April, Saturday

    Time Temperature Precipitation Wind Pressure Humidity
    00:00 +15°C° 0 mm 4 mps 756 mmHg 42%
    01:00 +14°C° 0 mm 4 mps 756 mmHg 42%
    02:00 +14°C° 0 mm 4 mps 755 mmHg 43%
    03:00 +13°C° 0 mm 4 mps 755 mmHg 43%
    04:00 +13°C° 0 mm 5 mps 755 mmHg 44%
    05:00 +13°C° 0 mm 4 mps 755 mmHg 46%
    06:00 +12°C° 0 mm 4 mps 756 mmHg 48%
    07:00 +12°C° 0 mm 4 mps 756 mmHg 50%
    08:00 +15°C° 0 mm 4 mps 756 mmHg 46%
    09:00 +19°C° 0 mm 4 mps 757 mmHg 42%
    10:00 +22°C° 0 mm 3 mps 757 mmHg 38%
    11:00 +24°C° 0 mm 3 mps 756 mmHg 38%
    12:00 +26°C° 0 mm 3 mps 755 mmHg 38%
    13:00 +27°C° 0 mm 3 mps 755 mmHg 39%
    14:00 +27°C° 0 mm 3 mps 754 mmHg 43%
    15:00 +27°C° 0 mm 3 mps 754 mmHg 47%
    16:00 +27°C° 0 mm 3 mps 754 mmHg 52%
    17:00 +25°C° 0 mm 3 mps 754 mmHg 63%
    18:00 +22°C° 0 mm 3 mps 755 mmHg 74%
    19:00 +19°C° 0 mm 4 mps 755 mmHg 86%
    20:00 +19°C° 0 mm 4 mps 756 mmHg 88%
    21:00 +19°C° 0 mm 4 mps 756 mmHg 90%
    22:00 +18°C° 0 mm 4 mps 756 mmHg 92%
    23:00 +18°C° 0 mm 4 mps 756 mmHg 92%

    30 April, Sunday

    Time Temperature Precipitation Wind Pressure Humidity
    00:00 +18°C° 0 mm 4 mps 755 mmHg 92%
    01:00 +17°C° 0 mm 4 mps 755 mmHg 92%
    02:00 +17°C° 0 mm 4 mps 755 mmHg 91%
    03:00 +17°C° 0 mm 4 mps 754 mmHg 90%
    04:00 +17°C° 0 mm 4 mps 754 mmHg 89%
    05:00 +17°C° 0 mm 4 mps 754 mmHg 89%
    06:00 +17°C° 0 mm 4 mps 755 mmHg 88%
    07:00 +18°C° 0 mm 4 mps 755 mmHg 87%
    08:00 +20°C° 0 mm 5 mps 755 mmHg 79%
    09:00 +23°C° 0 mm 5 mps 755 mmHg 71%
    10:00 +27°C° 0 mm 5 mps 756 mmHg 63%
    11:00 +27°C° 0.1 mm 5 mps 755 mmHg 63%
    12:00 +28°C° 0.1 mm 5 mps 754 mmHg 63%
    13:00 +28°C° 0.1 mm 5 mps 754 mmHg 63%
    14:00 +28°C° 0.1 mm 6 mps 753 mmHg 66%
    15:00 +27°C° 0.1 mm 6 mps 753 mmHg 70%
    16:00 +26°C° 0.1 mm 6 mps 753 mmHg 73%
    17:00 +24°C° 0 mm 6 mps 753 mmHg 79%
    18:00 +23°C° 0 mm 5 mps 754 mmHg 85%
    19:00 +21°C° 0 mm 5 mps 754 mmHg 91%
    20:00 +21°C° 0 mm 5 mps 754 mmHg 92%
    21:00 +20°C° 0 mm 5 mps 755 mmHg 92%
    22:00 +20°C° 0 mm 5 mps 755 mmHg 93%
    23:00 +20°C° 0 mm 4 mps 754 mmHg 94%

    1 May, Monday

    Time Temperature Precipitation Wind Pressure Humidity
    00:00 +19°C° 0 mm 4 mps 754 mmHg 94%
    01:00 +19°C° 0 mm 4 mps 754 mmHg 94%
    02:00 +19°C° 0 mm 4 mps 753 mmHg 95%
    03:00 +18°C° 0 mm 4 mps 753 mmHg 96%
    04:00 +18°C° 0 mm 4 mps 753 mmHg 96%
    05:00 +18°C° 0 mm 4 mps 754 mmHg 97%
    06:00 +19°C° 0 mm 4 mps 754 mmHg 97%
    07:00 +19°C° 0 mm 4 mps 754 mmHg 97%
    08:00 +21°C° 0 mm 4 mps 754 mmHg 86%
    09:00 +25°C° 0 mm 4 mps 754 mmHg 76%
    10:00 +27°C° 0 mm 3 mps 754 mmHg 65%
    11:00 +28°C° 0 mm 3 mps 753 mmHg 59%
    12:00 +29°C° 0 mm 3 mps 753 mmHg 54%
    13:00 +32°C° 0 mm 4 mps 752 mmHg 48%
    14:00 +30°C° 0 mm 4 mps 752 mmHg 52%
    15:00 +29°C° 0 mm 4 mps 752 mmHg 56%
    16:00 +29°C° 0 mm 4 mps 752 mmHg 60%
    17:00 +27°C° 0 mm 4 mps 752 mmHg 70%
    18:00 +25°C° 0 mm 3 mps 753 mmHg 80%
    19:00 +22°C° 0 mm 3 mps 753 mmHg 91%
    20:00 +22°C° 0.1 mm 3 mps 753 mmHg 92%
    21:00 +21°C° 0.1 mm 3 mps 753 mmHg 94%
    22:00 +21°C° 0.1 mm 3 mps 754 mmHg 96%
    23:00 +21°C° 0.1 mm 3 mps 753 mmHg 96%
    Show more